Skip Page Navigation
NASA JPL Caltech
NASA Logo - Jet Propulsion Laboratory + View the NASA Portal
+ Center for Near-Earth Object Studies
JPL Home Earth Solar System Stars & Galaxies Technology
JPL Solar System Dynamics
BODIES ORBITS EPHEMERIDES TOOLS PHYSICAL DATA DISCOVERY FAQ SITE MAP
IMPORTANT: The SSD Announcement email list is now available. Major changes are coming in the near future, including possible hostname and/or URL changes. To be notified of such changes, subscribe to this email list.

Please visit this page for more details.


JPL Small-Body Database Browser
Search: [ help ]  
160648 (1999 XC71)
Classification: Main-belt Asteroid          SPK-ID: 2160648
Ephemeris | Orbit Diagram | Orbital Elements | Mission Design | Physical Parameters | Discovery Circumstances | Close-Approach Data ]

[ show orbit diagram ]
Orbital Elements at Epoch 2458600.5 (2019-Apr-27.0) TDB
Reference: JPL 15 (heliocentric ecliptic J2000)
 Element Value Uncertainty (1-sigma)   Units 
e .09006699613416505 5.0322e-08  
a 2.733611569193776 2.2085e-08 au
q 2.487403386558892 1.4099e-07 au
i 6.62535631875117 5.8325e-06 deg
node 230.9015924644985 4.6095e-05 deg
peri 119.198780724746 5.5584e-05 deg
M 178.9673030695425 3.2554e-05 deg
tp 2457779.818156360399
(2017-Jan-26.31815636)
0.00014612 TDB
period 1650.834865603652
4.52
2.0005e-05
5.477e-08
d
yr
n .2180714785596443 2.6427e-09 deg/d
Q 2.979819751828661 2.4074e-08 au
  Orbit Determination Parameters
   # obs. used (total)      448  
   data-arc span      8919 days (24.42 yr)  
   first obs. used      1994-10-27  
   last obs. used      2019-03-29  
   planetary ephem.      DE431  
   SB-pert. ephem.      SB431-N16  
   condition code      0  
   norm. resid. RMS      .50828  
   source      ORB  
   producer      Otto Matic  
   solution date      2019-Jul-13 12:07:28  

Additional Information
 Earth MOID = 1.48933 au 
 Jupiter MOID = 2.38937 au 
 T_jup = 3.338 
[ show covariance matrix ]

Ephemeris | Orbit Diagram | Orbital Elements | Mission Design | Physical Parameters | Discovery Circumstances | Close-Approach Data ]

Physical Parameter Table
Parameter Symbol Value Units Sigma Reference Notes
absolute magnitude H 15.5   n/a MPO433027  
diameter diameter 5.482 km 0.427 urn:nasa:pds:neowise_diameters_albedos::2.0[mainbelt] (http://adsabs.harvard.edu/abs/2011ApJ...741...68M)  
geometric albedo albedo 0.049   0.009 urn:nasa:pds:neowise_diameters_albedos::2.0[mainbelt] (http://adsabs.harvard.edu/abs/2011ApJ...741...68M)  

160648 (1999 XC71)          Discovered 1999-Dec-07 by LINEAR at Socorro
Reference: 20070828/Numbers.arcLast Updated: 2007-08-30

[ show close-approach data ]
Alternate Designations
 1999 XC71 = 2003 ST105 
Ephemeris | Orbit Diagram | Orbital Elements | Mission Design | Physical Parameters | Discovery Circumstances | Close-Approach Data ]
ABOUT SSD CREDITS/AWARDS PRIVACY/COPYRIGHT GLOSSARY LINKS
FirstGov 2019-Dec-05 16:29 UT
(server date/time)  
NASA Home Page
Site Manager:   Ryan S. Park
Webmaster  Alan B. Chamberlin